Presure
170 139 103 122 89 119 109 133 130 121 118 116 139 102 117 105 118 133 124 131 115 115 142 152 119 123 121 121 112 136 138 159 157 128 154 173 129 123 126 170 177 202 282 247 268 273 300 295 284
107 117 116 131 166 145 119 121 111 153 99 119 124 116 129 106 132 121 134 115 112 138 120 116 125 123 117 123 117 129 161 143 118 153 119 124 147 162 170 179 182 239 237 231 241 242 249 252 264
142 161 151 151 117 138 106 102 121 90 164 125 110 109 117 121 117 111 115 106 122 118 118 126 124 119 116 118 154 148 121 126 159 170 126 179 160 162 172 174 199 232 229 225 213 222 211 229 233
187 181 157 120 145 119 141 131 133 134 98 130 127 120 119 122 116 124 125 122 115 122 127 125 154 125 129 134 134 127 121 126 173 164 167 164 163 166 174 186 238 225 220 220 215 204 196 208 206
187 164 132 131 163 138 160 160 129 153 161 110 148 137 105 156 115 132 117 166 149 143 122 115 132 131 154 142 127 125 159 131 150 154 144 162 164 179 171 232 223 218 209 211 202 191 196 201 199
124 178 129 184 115 123 128 152 140 166 110 141 108 145 149 124 118 112 117 135 151 154 143 138 142 169 127 124 125 155 138 131 159 172 156 164 181 173 216 221 206 208 199 201 196 192 187 208 208
126 126 162 133 143 119 118 97 137 157 162 124 107 147 156 114 114 117 128 124 117 116 124 135 143 123 145 163 136 135 137 158 166 163 184 176 208 214 218 210 211 203 195 198 199 200 193 184 196
120 124 115 139 125 135 125 168 131 113 120 134 133 130 119 112 118 124 124 121 112 124 131 172 125 152 131 155 140 139 168 160 156 162 170 213 213 221 212 203 198 197 198 191 180 182 192 183 174
131 146 152 152 129 141 129 124 138 134 174 131 120 122 123 124 124 139 167 113 138 162 150 154 139 124 147 163 160 171 176 159 167 175 186 216 218 209 212 198 198 195 194 191 197 197 191 187 191
154 156 173 135 132 123 112 119 118 132 123 180 129 138 123 125 126 116 119 153 140 159 127 125 155 160 146 159 164 172 164 167 193 218 218 218 211 202 211 202 198 200 169 169 152 187 187 189 192
134 140 111 185 147 140 132 133 134 132 126 139 141 125 150 120 117 138 160 136 168 131 159 160 136 127 154 164 166 174 173 229 206 200 212 185 199 203 195 200 189 176 183 182 194 175 204 200 199
154 126 110 149 137 129 135 126 115 119 130 132 133 177 180 176 171 165 155 125 166 144 129 162 163 147 163 171 172 168 231 134 221 214 174 207 208 200 204 199 214 204 205 205 203 202 200 200 193
182 112 160 127 119 144 126 131 130 130 168 181 181 181 162 171 123 123 163 171 153 132 147 176 155 154 170 172 190 183 219 209 197 185 212 216 214 209 94 203 185 200 195 194 193 186 189 192 188
168 191 211 212 198 167 189 174 164 187 141 182 181 187 187 125 178 177 125 133 128 126 167 178 179 164 131 208 194 218 155 205 192 200 229 206 203 195 196 192 189 194 194 195 167 188 170 187 184
226 108 239 209 249 242 230 202 118 190 190 189 188 186 185 180 130 129 129 128 228 128 174 169 167 158 199 212 212 182 203 220 205 219 207 204 199 177 188 121 175 196 194 182 181 188 156 207 212
234 233 229 233 208 222 229 133 228 201 169 180 178 179 131 142 126 135 178 174 139 179 216 241 212 214 158 210 234 218 205 202 193 209 194 186 168 195 191 198 188 186 178 190 136 185 193 210 207
222 220 239 242 245 246 247 262 250 196 152 189 132 135 207 205 196 217 197 184 175 237 200 223 247 214 127 205 209 205 205 197 213 191 184 165 183 194 188 187 182 181 187 186 177 202 205 203 198
240 243 243 242 247 247 254 247 207 240 127 133 205 244 249 170 150 133 212 233 232 219 236 218 222 230 225 210 207 209 221 204 186 183 175 186 193 183 190 191 187 185 133 180 198 109 197 201 203
229 238 248 267 237 239 233 125 127 228 223 223 223 202 126 133 147 232 230 217 231 230 216 195 213 202 204 211 216 200 184 183 182 185 190 183 184 191 184 185 200 176 201 133 175 190 201 194 196
235 233 244 231 201 152 227 227 233 230 240 227 132 131 136 232 218 232 215 214 228 204 215 203 206 204 208 193 194 182 177 186 184 196 191 194 194 190 190 186 199 112 195 182 204 195 196 201 203
237 127 208 203 145 158 229 256 243 188 198 131 133 211 238 221 214 219 225 218 212 210 205 204 204 204 209 198 188 177 179 187 194 192 188 191 191 186 202 200 195 199 161 174 198 196 205 205 209
240 162 140 145 147 197 214 214 211 153 137 222 211 207 223 220 222 211 215 201 203 200 197 203 207 194 181 180 182 186 193 197 189 182 184 186 182 195 194 179 200 205 204 213 206 140 130 120 118
146 147 226 227 224 211 213 232 81 218 215 205 218 226 221 201 207 199 192 195 201 198 202 203 190 184 179 185 194 190 193 191 184 180 188 181 198 196 189 182 197 205 197 212 213 219 227 231 237
233 233 234 228 223 227 224 217 233 233 218 205 210 214 215 209 157 194 191 192 190 197 196 188 189 187 182 191 186 192 189 180 183 184 185 194 201 189 206 201 202 210 220 227 232 236 237 243 239
244 253 254 237 225 223 232 243 249 247 234 225 206 201 198 195 197 197 193 191 188 186 185 188 187 198 191 195 191 187 179 187 185 196 199 190 197 206 213 210 218 222 230 243 241 251 259 267 277
239 236 234 236 233 234 238 226 227 234 240 240 214 205 190 184 193 192 191 186 187 190 185 192 186 187 188 184 183 186 189 189 203 193 203 207 204 207 212 226 228 250 256 264 272 297 305 319 305
206 207 203 205 201 204 201 197 197 204 212 214 200 194 189 190 197 197 191 189 188 198 196 190 189 184 183 111 185 97 106 131 190 203 200 211 215 225 236 242 248 257 270 284 284 293 332 327 324
205 199 201 201 204 207 212 200 206 210 202 203 203 204 196 200 194 189 191 198 196 188 190 183 186 186 184 184 100 98 136 200 200 194 227 236 221 235 243 246 289 305 313 349 341 338 337 336 366
194 200 195 188 203 202 206 210 208 202 202 189 183 186 189 187 201 203 201 189 185 175 179 184 184 187 183 184 117 196 202 196 210 213 231 226 239 250 286 295 279 348 346 344 344 416 438 425 416
193 202 197 197 192 194 192 194 191 190 192 197 198 200 215 219 190 193 190 170 170 180 185 189 183 189 172 197 194 200 199 214 212 226 238 250 251 286 283 300 351 347 455 450 431 415 406 403 399
Wind_Speed
77 61 34 48 32 37 25 52 53 50 48 28 61 36 44 36 46 59 57 64 45 51 65 68 57 65 62 62 52 85 85 98 95 80 99 97 83 78 84 110 122 133 18 45 22 19 20 20 20
38 42 41 52 85 56 38 43 35 66 30 40 43 48 61 37 54 46 61 52 44 64 54 55 67 66 59 66 61 77 93 85 69 101 71 76 93 102 118 126 128 49 48 44 24 23 20 18 17
60 78 70 72 35 53 26 30 52 23 85 51 33 43 54 49 44 41 52 42 57 56 57 67 66 62 60 63 91 85 67 75 92 104 82 114 100 108 125 124 131 41 31 26 43 24 38 21 21
97 97 77 38 62 35 63 55 63 62 30 54 54 47 50 54 49 54 59 58 54 62 69 67 85 70 78 83 82 77 72 78 105 99 108 109 114 120 127 107 25 36 33 27 22 33 49 23 25
99 76 49 44 83 47 78 82 52 74 75 36 65 62 39 69 46 62 55 81 77 78 62 56 74 80 93 89 75 76 99 86 100 100 97 116 119 136 123 35 39 35 43 37 34 43 35 26 30
45 90 41 95 32 38 47 69 54 83 38 55 44 66 66 51 50 45 54 69 80 81 73 82 81 90 73 73 77 98 91 87 103 121 105 123 134 124 59 42 51 42 45 43 43 43 38 20 16
47 42 77 43 51 40 42 33 52 76 80 41 46 62 69 47 45 53 64 64 58 59 70 81 84 70 86 98 86 90 90 104 121 121 115 134 101 65 45 49 39 43 48 42 37 37 38 41 27
37 43 37 46 37 47 46 83 45 42 47 53 62 55 51 44 52 61 63 62 55 69 77 95 71 91 80 94 90 87 117 109 103 119 126 70 67 43 44 54 54 50 46 44 47 45 42 37 40
48 61 65 63 47 54 44 44 60 57 88 55 50 52 54 55 58 71 84 56 75 83 86 89 77 73 87 109 105 118 120 108 128 137 122 57 50 57 48 56 53 53 49 47 50 46 47 44 41
59 64 85 48 44 42 39 46 45 56 50 99 57 66 55 60 63 52 59 81 79 85 66 69 88 102 93 104 114 124 113 122 110 68 49 53 54 62 53 57 55 55 59 58 57 49 49 47 45
41 51 34 98 59 57 48 51 52 55 53 67 67 55 71 51 50 68 77 69 98 73 87 89 75 75 98 117 105 124 133 51 91 84 61 84 67 58 59 56 58 60 58 57 55 54 46 43 42
51 42 35 56 42 45 50 49 39 43 60 61 61 94 98 94 88 88 85 62 90 73 67 96 108 89 120 124 113 114 53 59 56 59 91 65 59 58 56 55 54 55 56 55 53 51 49 44 42
72 37 55 42 43 63 47 52 54 55 88 102 104 104 82 87 54 57 83 103 89 66 85 106 95 104 123 121 124 119 72 66 87 93 66 61 58 55 36 51 57 47 49 51 51 53 52 51 52
55 57 89 89 95 76 102 89 81 104 63 103 100 115 117 53 106 109 59 64 60 63 102 118 125 108 74 93 116 68 80 79 87 72 57 61 56 55 55 54 57 54 54 51 51 55 52 56 54
62 36 73 84 76 84 90 114 44 108 111 112 111 112 113 109 57 59 61 62 52 67 104 108 119 107 79 72 75 96 92 61 67 57 55 55 54 63 60 51 64 56 55 57 59 60 54 61 61
59 60 63 68 69 78 72 45 86 101 68 91 87 101 54 63 58 64 103 113 72 113 71 25 57 61 71 72 54 68 81 79 72 58 59 66 74 65 65 62 62 62 62 66 51 65 66 66 63
49 53 57 60 64 65 64 51 61 53 53 68 54 54 67 103 87 83 70 55 67 35 58 48 41 60 75 71 69 73 75 77 59 66 67 72 69 64 67 68 68 69 72 73 68 73 73 70 68
41 43 43 48 51 51 47 49 53 51 53 54 60 48 43 52 62 69 69 49 42 50 30 41 44 51 57 67 70 70 62 61 69 72 74 72 69 69 73 71 71 71 53 71 78 41 76 76 75
35 37 34 31 40 40 44 50 47 50 54 56 59 54 56 61 63 44 45 53 35 32 39 69 50 61 56 57 59 57 66 68 73 75 73 70 72 75 73 77 80 69 82 57 72 76 81 81 81
29 31 30 34 39 43 43 41 47 47 41 36 53 55 59 44 48 39 50 53 31 55 44 54 53 58 56 64 56 67 75 75 77 75 75 77 77 75 78 76 85 54 85 82 90 86 84 86 89
29 40 32 36 43 42 34 26 34 40 44 56 56 44 36 45 50 46 38 44 44 44 47 51 54 57 56 56 66 73 77 79 79 80 79 82 85 80 88 89 88 89 74 81 91 91 93 91 95
19 35 41 42 43 38 40 33 41 48 55 33 48 49 39 38 33 41 38 47 46 49 51 52 54 58 65 68 73 77 78 79 80 79 83 85 82 94 94 86 97 97 97 99 95 65 62 60 61
36 40 25 24 27 35 42 29 14 36 32 47 46 34 36 45 38 42 54 56 53 56 55 53 58 66 72 74 74 78 81 82 82 82 91 86 98 99 95 92 101 103 96 109 109 114 119 120 118
19 21 22 25 29 30 34 42 28 24 34 43 43 40 42 39 55 43 48 52 58 58 58 62 65 69 74 76 80 82 86 84 91 92 96 103 105 98 108 108 107 113 118 120 121 121 119 120 118
13 16 20 23 27 30 32 34 28 30 30 32 39 46 47 48 50 49 50 51 59 64 69 69 73 75 76 78 81 84 83 91 93 99 101 100 106 111 115 115 122 123 124 125 123 128 130 133 132
6 9 10 12 16 20 20 21 24 26 27 28 34 35 43 55 52 51 52 57 61 64 69 70 74 78 80 83 85 90 94 95 103 105 109 112 114 118 121 125 125 134 137 138 140 139 133 128 126
17 15 19 19 26 25 23 28 31 29 30 35 40 40 45 49 52 53 59 61 63 65 67 71 75 79 84 51 95 49 49 67 104 111 113 117 120 125 129 133 133 136 139 138 134 128 117 119 120
17 23 22 25 27 30 24 28 29 26 35 37 39 45 51 48 51 58 61 61 64 69 72 76 80 83 87 91 49 54 75 109 110 112 123 124 124 130 134 135 140 138 130 119 118 117 117 117 105
28 25 28 36 28 32 37 28 30 36 36 46 51 54 56 57 56 57 59 61 66 71 76 80 85 89 93 98 65 107 110 111 117 123 130 129 135 138 138 137 136 121 118 117 116 87 69 67 67
31 26 30 31 36 38 44 45 45 46 46 48 49 53 53 54 59 60 62 66 71 78 83 86 89 95 89 104 107 112 114 119 121 130 132 137 138 139 136 134 120 119 81 75 73 71 68 65 64
Wind_Direction
252 258 268 267 266 281 292 273 277 282 283 312 268 284 296 293 298 288 289 291 302 305 285 281 304 307 311 310 311 294 298 286 290 303 292 299 302 301 302 309 309 312 335 310 329 340 329 313 309
260 260 263 261 256 263 281 273 292 256 289 294 272 296 284 294 285 295 280 296 310 292 297 309 303 306 309 300 307 300 296 295 306 292 303 302 301 308 312 311 314 310 315 316 339 342 353 355 355
256 250 253 255 274 260 277 271 277 282 269 285 293 290 289 295 298 297 296 307 302 303 305 302 304 309 308 308 294 301 304 307 298 308 306 313 308 311 310 309 312 306 302 313 311 343 315 350 1
248 246 251 267 262 277 263 268 266 270 287 283 285 286 290 295 296 297 292 298 304 301 298 301 289 305 304 299 301 307 307 307 309 307 313 311 311 310 313 311 293 298 289 297 301 299 302 327 323
247 250 262 269 255 272 258 261 272 270 268 286 270 278 289 281 295 286 299 292 285 286 306 306 300 300 290 296 307 308 301 307 309 307 305 310 309 308 309 288 290 289 297 293 292 301 292 296 296
259 249 268 249 267 269 269 262 272 264 282 274 286 276 278 289 295 303 301 290 284 286 294 292 294 295 308 309 309 293 302 306 308 309 308 307 308 310 303 292 298 291 291 288 294 287 290 306 296
263 267 254 266 268 271 271 279 272 267 267 280 281 276 275 296 300 300 295 297 302 303 301 296 297 309 296 300 305 303 304 307 308 308 307 306 310 305 296 295 290 290 289 290 295 293 284 284 296
262 267 268 271 267 268 271 263 276 280 282 276 275 280 289 300 297 293 294 298 302 300 298 297 307 289 303 297 303 302 306 305 305 305 305 302 301 292 296 296 295 297 297 297 293 292 294 281 278
262 252 260 262 262 262 270 274 272 275 266 278 286 289 290 291 293 285 284 302 294 286 297 286 296 305 297 303 304 305 302 303 303 301 301 296 289 293 289 293 293 297 297 297 297 296 293 292 291
262 256 251 269 269 266 277 276 283 278 283 273 284 278 290 290 290 300 300 288 290 293 301 303 297 299 301 301 301 304 300 301 300 300 295 293 294 296 294 298 299 298 293 294 299 297 296 291 292
270 261 278 250 267 270 272 276 277 278 281 277 280 287 283 295 300 293 280 292 293 295 292 296 300 301 300 299 298 300 299 293 301 301 299 305 300 296 297 296 294 296 296 297 292 296 291 290 290
254 262 286 268 268 270 272 275 291 290 279 281 285 279 282 285 286 285 289 294 289 294 299 294 295 297 295 295 297 299 295 309 296 298 305 299 296 296 297 295 292 292 292 293 294 293 294 292 285
249 280 258 270 275 263 269 270 274 276 272 274 277 278 283 284 292 293 284 287 290 300 295 291 293 292 291 293 295 296 298 297 300 303 299 297 294 295 305 297 296 291 289 288 288 290 289 287 284
255 247 243 245 250 254 253 260 266 265 278 272 273 273 275 291 280 282 294 295 301 303 289 288 291 289 292 291 295 292 299 293 301 299 299 297 297 297 294 293 294 292 291 291 292 291 288 287 284
242 274 243 245 248 249 254 252 282 260 261 264 267 269 274 277 293 293 295 299 277 300 285 286 288 293 286 282 286 295 291 283 290 302 299 296 294 302 295 299 299 295 295 292 292 293 289 292 292
242 244 246 248 251 251 258 277 258 259 273 266 272 269 291 286 297 293 281 282 293 283 282 238 270 260 292 279 283 277 285 292 294 294 293 295 303 298 296 297 296 295 294 293 297 294 298 296 294
248 250 251 254 256 258 259 261 266 275 280 273 289 292 271 272 278 273 280 289 287 275 282 278 253 260 302 279 279 279 280 288 294 292 295 300 298 295 299 298 298 298 298 297 297 298 297 297 296
245 248 250 252 252 255 258 260 266 265 284 288 274 266 264 285 288 294 275 275 276 276 274 276 271 266 263 269 276 280 287 288 292 296 300 300 300 298 296 295 296 300 297 297 300 294 300 297 297
246 251 250 244 257 261 261 277 281 266 268 269 270 275 293 293 289 266 263 272 278 280 279 285 281 281 280 280 284 287 290 291 291 291 292 296 297 297 299 300 298 297 298 286 294 297 296 297 293
251 252 246 259 265 272 266 267 266 267 260 264 288 290 290 265 269 262 269 276 280 281 285 280 282 285 286 289 284 288 294 291 294 293 296 297 296 297 299 300 300 301 302 297 298 298 294 291 291
252 268 259 266 276 276 262 246 255 271 272 286 287 278 266 268 269 268 272 276 278 285 287 288 287 287 288 286 289 295 297 296 296 298 301 301 302 303 301 301 302 299 294 297 295 294 293 292 292
251 268 272 273 275 270 269 264 267 282 285 263 264 274 273 277 283 282 283 285 288 288 288 287 290 287 294 293 293 294 292 294 298 303 304 304 304 304 304 301 301 299 298 298 296 297 298 289 292
267 270 253 252 257 259 264 263 316 257 263 267 273 267 258 275 276 285 292 294 297 295 294 294 290 291 295 294 293 296 298 301 303 305 303 306 302 303 304 300 302 301 301 301 300 299 297 295 293
265 265 264 262 263 266 263 262 267 251 243 265 276 285 286 283 291 285 287 290 292 293 293 293 291 293 298 297 301 300 303 306 306 306 307 304 303 305 303 302 302 302 301 299 297 295 293 292 290
274 271 266 265 269 271 278 288 298 284 266 250 263 279 290 292 290 292 291 293 293 293 292 295 297 296 300 300 301 300 303 302 305 301 299 303 302 302 304 304 301 299 299 298 296 296 296 294 292
304 306 307 301 298 302 324 321 320 303 296 278 270 276 284 288 288 287 284 284 287 290 295 297 300 301 302 302 303 306 305 304 304 307 306 306 305 305 302 300 299 301 301 299 297 296 295 292 291
257 263 269 276 276 282 284 288 292 297 296 292 281 277 274 279 285 288 287 290 293 294 297 300 301 302 305 307 306 302 303 304 307 305 306 305 303 301 303 303 302 301 299 298 297 296 293 290 288
258 267 273 278 285 288 285 278 282 283 283 287 290 291 294 292 292 293 295 298 299 302 301 301 301 303 303 305 299 299 304 306 306 307 304 302 304 305 304 303 300 300 300 299 297 295 293 292 291
272 270 272 283 291 293 296 295 283 282 284 284 292 291 292 295 291 290 294 298 299 301 304 305 305 305 307 307 304 304 304 305 306 308 306 306 305 304 303 302 302 303 300 299 298 298 298 296 295
280 292 289 290 288 292 295 298 295 293 290 290 291 293 299 298 300 302 305 304 308 305 304 304 307 305 305 304 306 306 307 308 307 305 307 306 305 304 305 303 303 302 303 303 302 300 298 296 295